DW4236 Weather Reports


time (UTC)temp
F
wind
direction
speed
knots
gust
knots
rain 1hr
in
rain 24hr
in
rain mn
in
humidity
%
barometer
mb
20260503192605 59 317 2.6 10.4 0.00 0.00 0.00 35 1011.4
20260503192104 58 332 4.3 18.2 0.00 0.00 0.00 35 1011.6
20260503191104 59 326 6.1 13.9 0.00 0.00 0.00 37 1011.6
20260503190604 59 16 6.1 13.9 0.00 0.00 0.00 36 1011.8
20260503190105 58 10 6.1 13.9 0.00 0.00 0.00 40 1011.7
20260503185605 57 5 6.1 13.0 0.00 0.00 0.00 38 1011.8
20260503185105 56 23 7.8 18.2 0.00 0.00 0.00 38 1011.9
20260503184606 55 350 2.6 8.7 0.00 0.00 0.00 39 1012.0
20260503184105 55 5 5.2 11.3 0.00 0.00 0.00 39 1012.0
20260503183606 55 50 4.3 13.0 0.00 0.00 0.00 39 1012.0
20260503183105 55 37 4.3 13.9 0.00 0.00 0.00 40 1012.2
20260503182605 55 35 6.1 17.4 0.00 0.00 0.00 39 1012.3
20260503181605 54 47 3.5 14.8 0.00 0.00 0.00 41 1012.4
20260503181105 54 5 6.1 13.0 0.00 0.00 0.00 39 1012.3
20260503180604 55 32 4.3 15.6 0.00 0.00 0.00 43 1012.4
20260503180105 55 51 7.8 13.9 0.00 0.00 0.00 40 1012.4
20260503175104 56 355 4.3 10.4 0.00 0.00 0.00 40 1012.5
20260503174105 55 324 3.5 15.6 0.00 0.00 0.00 42 1012.6
20260503173604 55 338 2.6 10.4 0.00 0.00 0.00 43 1012.7
20260503173105 55 22 6.1 11.3 0.00 0.00 0.00 43 1012.7
20260503172604 53 23 2.6 10.4 0.00 0.00 0.00 44 1012.7
20260503172105 54 333 4.3 11.3 0.00 0.00 0.00 43 1012.8
20260503171605 54 37 2.6 10.4 0.00 0.00 0.00 45 1012.8
20260503171104 53 62 4.3 7.8 0.00 0.00 0.00 47 1012.8
20260503170104 52 337 5.2 11.3 0.00 0.00 0.00 44 1012.9
20260503160105 53 357 3.5 7.8 0.00 0.00 0.00 44 1012.8
20260503150618 51 21 5.2 10.4 0.00 0.00 0.00 41 1012.9
20260503150106 51 331 4.3 12.2 0.00 0.00 0.00 46 1013.0
20260503140105 51 11 1.7 8.7 0.00 0.00 0.00 52 1013.0
20260503131105 49 3 4.3 12.2 0.00 0.00 0.00 55 1013.3
20260503130604 49 6 3.5 10.4 0.00 0.00 0.00 55 1013.2
20260503130104 50 332 2.6 10.4 0.00 0.00 0.00 54 1013.2
20260503110604 42 347 2.6 7.8 0.00 0.00 0.00 70 1013.1
20260503110104 41 331 2.6 6.1 0.00 0.00 0.00 70 1013.0
20260503100104 41 359 0.0 0.0 0.00 0.00 0.00 72 1012.5
20260503090105 43 357 0.9 1.7 0.00 0.02 0.00 65 1012.3
20260503081605 44 92 1.7 5.2 0.00 0.07 0.00 62 1012.4
20260503081104 44 35 1.7 4.3 0.00 0.08 0.00 63 1012.5
20260503080604 44 102 4.3 8.7 0.00 0.08 0.00 62 1012.4
20260503080104 44 51 2.6 6.1 0.00 0.08 0.00 64 1012.4
20260503072604 44 38 2.6 7.8 0.00 0.08 0.00 64 1012.5
20260503072105 44 38 5.2 8.7 0.00 0.08 0.00 64 1012.5
20260503071604 44 54 1.7 8.7 0.00 0.08 0.00 64 1012.5
20260503071104 44 23 2.6 10.4 0.00 0.08 0.00 64 1012.5
20260503070604 44 54 2.6 5.2 0.00 0.08 0.00 65 1012.5
20260503070105 44 71 2.6 10.4 0.00 0.08 0.00 66 1012.5
20260503060105 44 68 2.6 7.0 0.00 0.09 0.00 67 1012.7
20260503054604 44 62 1.7 5.2 0.00 0.10 0.00 66 1013.0
20260503054104 44 56 1.7 2.6 0.00 0.10 0.00 66 1013.0
20260503053104 44 66 1.7 4.3 0.00 0.10 0.00 65 1013.0
20260503051604 45 99 1.7 2.6 0.00 0.10 0.00 64 1013.1
20260503051104 45 90 1.7 2.6 0.00 0.10 0.00 63 1013.2
20260503050104 45 57 0.0 2.6 0.00 0.10 0.00 63 1013.4
20260503045604 45 53 1.7 5.2 0.00 0.10 0.00 62 1013.4
20260503045104 45 61 1.7 4.3 0.00 0.10 0.00 62 1013.3
20260503044605 46 96 1.7 6.1 0.00 0.10 0.00 62 1013.3
20260503044104 46 43 1.7 2.6 0.00 0.10 0.00 62 1013.3
20260503043605 46 43 2.6 5.2 0.00 0.10 0.00 61 1013.3
20260503042604 46 79 2.6 7.0 0.00 0.10 0.00 61 1013.5
20260503042105 46 49 1.7 7.8 0.00 0.10 0.00 61 1013.6
20260503041604 46 82 1.7 4.3 0.00 0.10 0.00 60 1013.6
20260503041104 46 89 1.7 2.6 0.00 0.10 0.00 60 1013.6
20260503040104 46 63 1.7 2.6 0.00 0.10 0.00 60 1013.5
20260503035605 46 66 1.7 2.6 0.00 0.10 0.10 59 1013.4
20260503035104 47 67 1.7 4.3 0.00 0.10 0.10 60 1013.5
20260503034604 47 50 1.7 4.3 0.00 0.10 0.10 59 1013.5
20260503034105 47 40 0.0 1.7 0.00 0.10 0.10 58 1013.5
20260503032604 48 59 2.6 7.0 0.00 0.10 0.10 56 1013.4
20260503031604 48 61 1.7 4.3 0.00 0.10 0.10 56 1013.4
20260503031104 48 50 2.6 4.3 0.00 0.10 0.10 56 1013.3
20260503025604 49 55 0.9 2.6 0.00 0.10 0.10 53 1013.4
20260503025105 49 56 0.9 2.6 0.00 0.10 0.10 52 1013.4
20260503023604 50 60 1.7 4.3 0.00 0.10 0.10 50 1013.4
20260503022604 50 62 3.5 7.0 0.00 0.10 0.10 52 1013.4
20260503020604 49 67 0.9 2.6 0.00 0.10 0.10 56 1013.6
20260503020105 49 64 0.0 0.0 0.00 0.10 0.10 58 1013.5
20260503015605 49 64 0.9 2.6 0.00 0.10 0.10 57 1013.5
20260503015104 50 64 0.0 1.7 0.00 0.10 0.10 58 1013.4
20260503014604 50 64 0.0 0.9 0.00 0.10 0.10 57 1013.4
20260503013604 50 64 0.0 0.9 0.00 0.10 0.10 55 1013.3
20260503013104 51 64 0.0 0.0 0.00 0.10 0.10 54 1013.3
20260503012105 51 64 0.0 2.6 0.00 0.10 0.10 53 1013.2
20260503011605 51 64 0.9 2.6 0.00 0.10 0.10 52 1013.0
20260503011104 51 72 0.9 2.6 0.00 0.10 0.10 53 1013.1
20260503010604 51 40 0.0 0.0 0.00 0.10 0.10 54 1013.0
20260503010104 52 40 0.0 0.0 0.00 0.10 0.10 52 1012.8
20260503005605 52 40 0.0 0.9 0.00 0.10 0.10 51 1012.8
20260503005105 52 40 0.9 4.3 0.00 0.10 0.10 46 1012.7
20260503004104 52 53 0.9 0.9 0.00 0.10 0.10 49 1012.7
20260503003605 53 53 0.0 0.0 0.00 0.10 0.10 47 1012.7
20260503003105 53 53 0.0 0.9 0.00 0.10 0.10 46 1012.7
20260503002604 53 55 0.0 2.6 0.00 0.10 0.10 44 1012.6
20260503001604 53 54 2.6 7.0 0.00 0.10 0.10 43 1012.5
20260503001104 54 60 2.6 5.2 0.00 0.10 0.10 43 1012.5
20260503000605 54 88 0.9 4.3 0.00 0.10 0.10 44 1012.5
20260503000104 54 76 1.7 2.6 0.00 0.10 0.10 43 1012.5
20260502235604 54 45 0.9 2.6 0.00 0.10 0.10 44 1012.5
20260502235104 55 59 1.7 2.6 0.00 0.10 0.10 42 1012.4
20260502234604 55 40 1.7 7.0 0.00 0.10 0.10 41 1012.4
20260502234104 55 77 2.6 7.8 0.00 0.10 0.10 41 1012.4
20260502233605 55 353 1.7 4.3 0.00 0.10 0.10 42 1012.4
20260502233105 55 1 1.7 8.7 0.00 0.10 0.10 40 1012.3
20260502232604 56 48 4.3 10.4 0.00 0.10 0.10 41 1012.2
20260502232105 56 9 3.5 10.4 0.00 0.10 0.10 41 1012.2
20260502231605 56 9 4.3 10.4 0.00 0.10 0.10 40 1012.3
20260502231105 56 25 6.1 13.9 0.00 0.10 0.10 39 1012.2
20260502230604 56 31 4.3 7.8 0.00 0.10 0.10 40 1012.2
20260502230104 56 37 2.6 10.4 0.00 0.10 0.10 41 1012.2
20260502224604 56 344 2.6 6.1 0.00 0.10 0.10 40 1012.1
20260502224104 56 342 2.6 7.8 0.00 0.10 0.10 41 1012.0
20260502223104 57 340 3.5 6.1 0.00 0.10 0.10 41 1011.9
20260502222104 57 355 2.6 5.2 0.00 0.10 0.10 41 1011.9
20260502221104 57 34 1.7 6.1 0.00 0.10 0.10 41 1011.8
20260502220605 57 19 4.3 10.4 0.00 0.10 0.10 38 1011.6
20260502220104 57 358 4.3 8.7 0.00 0.10 0.10 39 1011.6
20260502214604 58 349 2.6 7.8 0.00 0.10 0.10 39 1011.5
20260502213104 59 21 4.3 8.7 0.00 0.10 0.10 39 1011.5
20260502212604 59 309 5.2 8.7 0.00 0.10 0.10 37 1011.4
20260502212104 59 343 4.3 10.4 0.00 0.10 0.10 39 1011.4
20260502211104 58 35 0.0 1.7 0.00 0.10 0.10 50 1011.3
20260502210105 60 57 0.0 2.6 0.00 0.10 0.10 49 1011.2
20260502205106 60 121 0.9 4.3 0.00 0.10 0.10 55 1011.1
20260502204605 58 128 1.7 6.1 0.00 0.10 0.10 54 1011.1
20260502204104 58 132 1.7 4.3 0.00 0.10 0.10 54 1011.1
20260502203104 58 163 3.5 7.0 0.00 0.10 0.10 51 1011.2
20260502202605 58 126 2.6 5.2 0.00 0.10 0.10 54 1011.4
20260502202105 58 131 1.7 2.6 0.00 0.10 0.10 55 1011.4
20260502201604 58 114 1.7 4.3 0.00 0.10 0.10 56 1011.5
20260502201105 57 128 2.6 4.3 0.00 0.10 0.10 55 1011.5
20260502200605 57 124 1.7 4.3 0.00 0.10 0.10 55 1011.6
20260502200106 57 124 2.6 4.3 0.00 0.10 0.10 55 1011.7
20260502195604 57 139 1.7 7.8 0.00 0.10 0.10 55 1011.7
20260502195104 57 37 1.7 6.1 0.00 0.10 0.10 56 1011.7
20260502194604 58 120 2.6 10.4 0.00 0.10 0.10 55 1011.8
20260502194104 58 209 0.9 2.6 0.00 0.10 0.10 55 1011.7
20260502193104 58 191 1.7 2.6 0.00 0.10 0.10 56 1011.9